NOAA 16 DEB, 42379

Orbit data source: Space-Track

NOAA 16 DEB, 42379 is space debris in SSO originally from a launch on Thu, 21 Sep 2000 UTC launched from the Air Force Western Test Range (AFWTR). Debris objects in space refer to the collection of defunct objects orbiting the Earth. Examples of debris include non-operational satellites, rocket bodies, and fragments generated from explosions, collisions, or faulty payload assembly.

Loading next visibility...
Identifier
42379, 2000-055RX
Orbit
SSO
Country
Flag of USUS
Related business
Manufacturer
Unknown
Mission
Spacecraft
Bus & Motor
Unknown
Mass
Unknown
Launch date (UTC)
2000-09-21 (26 years ago)
Launch vehicle
Unknown
Launch site
Air Force Western Test Range (AFWTR)
Object type
Payload
Rocket body
Debris
Shape & HBR
Unknown shape, 0.1 m
Radar Cross Section
Small (<0.1 m²)

Expand to show TLE details & history
Last TLE update: 1 day ago

TLE from 1 day ago
0 NOAA 16 DEB
1 42379U 00055RX  26254.57801735  .00016798  00000-0  19945-2 0  9991
2 42379  98.9151 119.1175 0017568 171.3830 188.7686 14.84438937549042
Epoch: 2026-09-11T13:52Z
TLE epoch observation values (Epoch: 2026-09-11T13:52:20.699Z)
Latitude
-0.00001°
Longitude
-79.56811°
Altitude
630.488 km
Speed
7.537 km/s
True Right ascension
07h 56m 28s
True Declination
0° 00' 00"
Sunlit
Object was in daylight at epoch
Visualization orbit readout
Latitude
Unknown
Longitude
Unknown
Altitude
Unknown
Speed
Unknown
Apparent Right ascension
Unknown
Apparent Declination
Unknown
Sunlit
N/A
Visualization observer readout
Local Sidereal Time
09:19:46
Azimuth
Unknown
Elevation
Unknown
Doppler factor
Unknown
Orbital elements
Apogee altitude
624.712 km
Perigee altitude
600.15 km
Semi-major axis
6,990.568 km
Eccentricity
0.00176
Inclination
98.9151°
RAAN
119.1175°
Arg. of periapsis
171.383°
True anomaly
188.73798°
Mean anomaly
188.7686°
Eccentric anomaly
188.75328°
Mean motion
3.71342 °/min
Orbital period
96.95 mins
BSTAR
0.0019945
Loading maneuver chart data...
Computing Atmospheric mass density...

Documentation

Showing up to 5 results
|